Clarksburg, WV

6:16 PM EDT on September 20, 2017 (GMT -0400)
Benedum

Weather History for KCKB - March, 2012

Change the Weather History Date:

Saturday, March 31, 2012

  Actual Average Record
Temperature  
Mean Temperature 52 °F 47 °F  
Max Temperature 57 °F 59 °F 84 °F (1998)
Min Temperature 46 °F 36 °F 11 °F (1941)
Degree Days  
Heating Degree Days 14 18  
Month to date heating degree days 721  
Since 1 July heating degree days 4682  
Cooling Degree Days 0 0  
Month to date cooling degree days 1  
Year to date cooling degree days 1  
Growing Degree Days 2 (Base 50)    
Moisture  
Dew Point 49 °F    
Average Humidity 86    
Maximum Humidity 94    
Minimum Humidity 74    
Precipitation  
Precipitation 0.64 in 0.15 in 1.25 in (1989)
Month to date precipitation 4.00  
Year to date precipitation 10.59  
Sea Level Pressure  
Sea Level Pressure 29.81 in    
Wind  
Wind Speed 5 mph (NW)    
Max Wind Speed 10 mph    
Max Gust Speed -    
Visibility 7 miles    
Events Rain , Thunderstorm    
T = Trace of Precipitation, MM = Missing Value Source: NWS Daily Summary

Daily Weather History Graph

Daily Weather History Graph

Search for Another Location

Airport or City:

Trip Planner

Search our weather history database for the weather conditions in past years. The results will help you decide how hot, cold, wet, or windy it might be!

Date:

Astronomy

Mar. 31, 2012 Rise Set
Actual Time 7:06 AM EDT 7:44 PM EDT
Civil Twilight 6:39 AM EDT 8:11 PM EDT
Nautical Twilight 6:07 AM EDT 8:43 PM EDT
Astronomical Twilight 5:34 AM EDT 9:16 PM EDT
Moon 1:12 PM EDT (3/31) 2:59 AM EDT (3/31)
Length of Visible Light 13h 32m
Length of Day
12h 38m
First Quarter, 59% of the Moon is Illuminated
Mar 31
First Quarter
Apr 6
Full
Apr 13
Last Quarter
Apr 21
New
Apr 29
First Quarter

Hourly Weather History & Observations

Time (EDT) Temp. Dew Point Humidity Pressure Visibility Wind Dir Wind Speed Gust Speed Precip Events Conditions
12:16 AM 55.4 °F 51.8 °F 88% 29.81 in 2.0 mi WSW 8.1 mph - 0.17 in Rain , Thunderstorm Heavy Thunderstorms and Rain
12:29 AM 55.4 °F 53.6 °F 94% 29.81 in 3.0 mi West 4.6 mph - 0.22 in Rain , Thunderstorm Thunderstorms and Rain
12:53 AM 55.9 °F 52.0 °F 87% 29.78 in 8.0 mi South 3.5 mph - 0.28 in Rain , Thunderstorm Light Rain
1:13 AM 55.4 °F 51.8 °F 88% 29.79 in 6.0 mi South 6.9 mph - 0.03 in Rain Rain
1:53 AM 55.9 °F 53.1 °F 90% 29.75 in 9.0 mi SSE 10.4 mph - 0.12 in Rain Light Rain
2:53 AM 57.0 °F 53.1 °F 87% 29.75 in 10.0 mi Calm Calm - 0.01 in   Overcast
3:53 AM 55.9 °F 54.0 °F 93% 29.75 in 10.0 mi Calm Calm - 0.03 in Rain Light Rain
4:13 AM 55.4 °F 53.6 °F 94% 29.78 in 7.0 mi WSW 4.6 mph - 0.01 in Rain Light Rain
4:16 AM 55.4 °F 53.6 °F 94% 29.77 in 1.8 mi Variable 3.5 mph - 0.11 in Rain Heavy Rain
4:27 AM 55.4 °F 53.6 °F 94% 29.77 in 2.5 mi SSW 4.6 mph - 0.18 in Rain , Thunderstorm Light Thunderstorms and Rain
4:34 AM 55.4 °F 53.6 °F 94% 29.76 in 10.0 mi SSW 4.6 mph - 0.18 in Rain , Thunderstorm Light Thunderstorms and Rain
4:43 AM 55.4 °F 53.6 °F 94% 29.75 in 8.0 mi South 4.6 mph - 0.19 in Rain Light Rain
4:53 AM 57.0 °F 54.0 °F 89% 29.73 in 6.0 mi WSW 4.6 mph - 0.19 in Rain Light Rain
5:00 AM 57.2 °F 53.6 °F 88% 29.76 in 9.0 mi SSW 3.5 mph - 0.00 in Rain Light Rain
5:53 AM 57.0 °F 54.0 °F 89% 29.73 in 10.0 mi SW 3.5 mph - 0.00 in   Overcast
6:53 AM 57.0 °F 54.0 °F 89% 29.74 in 10.0 mi Calm Calm - N/A   Overcast
7:10 AM 57.2 °F 53.6 °F 88% 29.77 in 10.0 mi WSW 3.5 mph - N/A   Overcast
7:40 AM 57.2 °F 53.6 °F 88% 29.78 in 8.0 mi West 3.5 mph - N/A   Overcast
7:53 AM 57.0 °F 54.0 °F 89% 29.76 in 7.0 mi West 3.5 mph - N/A   Overcast
8:53 AM 57.0 °F 52.0 °F 83% 29.78 in 7.0 mi West 5.8 mph - 0.01 in   Overcast
9:16 AM 55.4 °F 51.8 °F 88% 29.82 in 6.0 mi NW 6.9 mph - N/A   Haze
9:41 AM 55.4 °F 48.2 °F 77% 29.83 in 7.0 mi WNW 9.2 mph - N/A   Overcast
9:53 AM 55.9 °F 50.0 °F 80% 29.81 in 7.0 mi NNW 9.2 mph - N/A   Overcast
10:12 AM 53.6 °F 48.2 °F 82% 29.85 in 4.0 mi North 10.4 mph - N/A   Overcast
10:23 AM 51.8 °F 48.2 °F 88% 29.85 in 2.5 mi NNE 9.2 mph - N/A   Overcast
10:53 AM 50.0 °F 46.9 °F 89% 29.85 in 3.0 mi North 10.4 mph - N/A   Overcast
11:53 AM 50.0 °F 46.0 °F 86% 29.85 in 4.0 mi NNW 6.9 mph - N/A   Overcast
12:53 PM 48.9 °F 45.0 °F 86% 29.85 in 5.0 mi NNE 4.6 mph - N/A   Overcast
1:53 PM 50.0 °F 45.0 °F 83% 29.85 in 5.0 mi North 4.6 mph - N/A   Haze
2:48 PM 50.0 °F 44.6 °F 82% 29.86 in 6.0 mi North 6.9 mph - N/A   Haze
2:53 PM 50.0 °F 45.0 °F 83% 29.84 in 6.0 mi North 6.9 mph - N/A   Haze
3:00 PM 50.0 °F 44.6 °F 82% 29.86 in 6.0 mi North 5.8 mph - N/A   Haze
3:53 PM 50.0 °F 44.1 °F 80% 29.85 in 7.0 mi North 5.8 mph - N/A   Overcast
4:53 PM 48.9 °F 43.0 °F 80% 29.85 in 9.0 mi NNW 8.1 mph - N/A   Overcast
5:53 PM 48.9 °F 43.0 °F 80% 29.86 in 9.0 mi NNW 5.8 mph - N/A   Overcast
6:53 PM 48.0 °F 42.1 °F 80% 29.86 in 10.0 mi NNW 6.9 mph - N/A   Overcast
7:19 PM 48.2 °F 42.8 °F 82% 29.88 in 10.0 mi NNW 5.8 mph - N/A   Overcast
7:53 PM 48.2 °F 42.8 °F 82% 29.89 in 10.0 mi NNW 3.5 mph - N/A   Overcast
8:53 PM 48.0 °F 41.0 °F 77% 29.88 in 10.0 mi NW 4.6 mph - N/A   Overcast
9:53 PM 48.0 °F 39.9 °F 74% 29.90 in 10.0 mi WNW 3.5 mph - N/A   Overcast
10:53 PM 46.9 °F 39.9 °F 77% 29.90 in 10.0 mi NNW 4.6 mph - N/A   Overcast
11:53 PM 46.9 °F 39.0 °F 74% 29.91 in 10.0 mi North 4.6 mph - N/A   Overcast